455  
ASHW40 PHFO 201113  
RWRHI  
 
WEATHER ROUNDUP FOR HAWAII  
NATIONAL WEATHER SERVICE HONOLULU HI  
100 AM HST THU FEB 20 2020  
 
THIS IS AN AUTOMATED REPORT THAT HAS NOT BEEN QUALITY CONTROLLED.  
 
NOTE..."FAIR" INDICATES FEW OR NO CLOUDS BELOW 12,000 FEET WITH NO  
SIGNIFICANT WEATHER AND/OR S TO VISIBILITY
.  
 
* - THESE SITES REPORT LIMITED FIELDS  
# - BUOY DATA PROVIDED BY PACIFIC ISLANDS OCEAN OBSERVING SYSTEM.  
 
HIZ001>004-201200-  
KAUAI-NIIHAU-  
 
CITY SKY/WX TMP DP RH WIND PRES REMARKS
 
LIHUE APT CLOUDY 74 65 73 NE28 30.24F  
PORT ALLEN* N/A 72 N/A N/A NE16G22 N/A  
POIPU* NOT AVBL  
PRINCEVILLE* N/A 72 N/A N/A E13G23 N/A  
KOKOLE POINT* NOT AVBL  
MOLOAA DAIRY* N/A 72 63 73 E3G14 N/A  
WAIMEA HTS* NOT AVBL  
PUU OPAE* NOT AVBL  
PUU LUA* NOT AVBL  
MAKAHA RIDGE* NOT AVBL  

 
 
HIZ005>011-201200-  
OAHU-  
 
CITY SKY/WX TMP DP RH WIND PRES REMARKS
 
HONOLULU MOCLDY 72 64 76 NE23G29 30.19S  
KALAELOA MOCLDY 73 64 73 NE8 30.19F  
KANEOHE MCB NOT AVBL  
WHEELER FIELD DRIZZLE 67 65 94 N6 30.19F  
BELLOWS* NOT AVBL  
KAHUKU* NOT AVBL  
WHEELER* NOT AVBL  
WAIANAE HARBOR NOT AVBL  
DILLINGHAM* N/A 68 68 100 E3G12 N/A  
KAHUKU TRN* N/A 70 63 78 E16G32 N/A  
KAWAILOA* NOT AVBL  
KII* N/A 73 66 78 E26G36 N/A  
MAKUA RANGE* N/A 70 64 83 NE5G17 N/A  
OAHU FOREST NW NOT AVBL  
SCHOFIELD BRK* N/A 66 63 88 NE6 N/A  
SCHOFIELD S* NOT AVBL  
WAIANAE VLY* NOT AVBL  
KUAOKALA* NOT AVBL  
HONOULIUULI* NOT AVBL  
MOKUOLOE IS* N/A 73 N/A N/A E18G26 N/A  
PALEHUA* NOT AVBL  
WAIAWA PHB* NOT AVBL  

 
 
HIZ012>013-201200-  
MOLOKAI-  
 
CITY SKY/WX TMP DP RH WIND PRES REMARKS
 
MOLOKAI AIRPT LGT RAIN N/A N/A N/A NE17G32 30.19F  
KALAUPAPA NOT AVBL  
MAKAPULAPAI* NOT AVBL  
MOLOKAI 1* NOT AVBL  
PUU ALII* NOT AVBL  

 
 
HIZ016-201200-  
KAHOOLAWE-  
 
CITY SKY/WX TMP DP RH WIND PRES REMARKS
 
KAHOOLAWE* NOT AVBL  
HAKIOAWA* NOT AVBL  
HONOKANAIA* NOT AVBL  
KANELOA* N/A 70 66 88 E28G45 30.21S  
KEALIALALO* NOT AVBL  
LUA MAKIKA* NOT AVBL  

 
 
HIZ014>015-201200-  
LANAI-  
 
CITY SKY/WX TMP DP RH WIND PRES REMARKS
 
LANAI CITY CLOUDY 66 32 28 NE13 30.21S  
LANAI 1* NOT AVBL  

 
 
HIZ017>028-201200-  
MAUI-  
 
CITY SKY/WX TMP DP RH WIND PRES REMARKS
 
KAHULUI CLOUDY 70 65 84 E16G25 30.19S  
KAPALUA-W MAUI NOT AVBL  
HANA AIRPORT CLOUDY 72 63 73 E9G23 30.25S  
HANA* N/A 73 N/A N/A VRB1 N/A  
HALEAKALA SUMM N/A 39 16 38 NE31 N/A VSB 0 WCI 27  
MAALAEA BAY* NOT AVBL  
HALEAKALA* NOT AVBL  
KAUPO GAP* NOT AVBL  
KULA 1* N/A 48 36 61 SE3G9 N/A  

 
 
HIZ023>026-201200-  
BIG ISLAND OF HAWAII COAST AND LOWER SLOPES-  
 
CITY SKY/WX TMP DP RH WIND PRES REMARKS
 
KAILUA KONA PTCLDY 73 61 65 SE8 30.10F  
HILO CLOUDY 71 63 75 CALM 30.23S  
HONOKAA* NOT AVBL  
KAWAIHAE MWT* NOT AVBL  
KAWAIHAE* N/A 82 N/A N/A NE9G26 30.06  
SOUTH POINT* N/A 68 N/A N/A E25G38 N/A  
UPOLU AIRPORT* N/A 68 N/A N/A E28G43 N/A  
KAMUELA* CLOUDY 61 59 94 NE23 30.21R  
HAKALAU* N/A 48 48 100 S1 N/A  
KALOKO-HONOKO* NOT AVBL  
PALI 2* N/A 61 57 88 NE18G30 N/A  
KEALAKOMO* N/A 70 63 78 NE20G31 N/A  
KAUPULEHU* NOT AVBL  
KAPAPALA* N/A 68 57 68 E12G22 N/A  
LOWER KAHUKU* NOT AVBL  
PUHE CS* NOT AVBL  
PUHO CS* NOT AVBL  
PTA KEAMUKU* N/A 55 52 88 S12 N/A  
WAIKOLOA* NOT AVBL  

 
 
HIZ027>028-201200-  
BIG ISLAND OF HAWAII INTERIOR AND SUMMMITS-  
 
CITY SKY/WX TMP DP RH WIND PRES REMARKS
 
BRADSHAW FIELD CLEAR 47 31 54 SE5 30.38F  
MK VISITOR CEN N/A 52 -42 1 NE15G28 N/A  
MAUNA KEA* N/A 34 -27 6 NE28 N/A WCI 20  
MAUNA LOA* NOT AVBL  
MAUNA LOA 1* NOT AVBL  
PTA KIPUKA* N/A 46 45 93 SW3G10 N/A  
PTA RANGE 17* N/A 54 48 82 E17G32 N/A  
PTA WEST* N/A 52 43 71 E5G23 N/A  
NENE CABIN* NOT AVBL  
AHUMOA* NOT AVBL  
PTA PORTABLE* NOT AVBL  
PUU MALI* N/A 61 12 15 SE18G31 N/A  

 
 
HIC003-201200-  
NORTHWEST ISLANDS-  
 
CITY SKY/WX TMP DP RH WIND PRES REMARKS
 
MIDWAY ISLAND CLOUDY 68 66 94 E13 30.34F  
MIDWAY NOS* NOT AVBL  
FRENCH FRIGATE NOT AVBL  

 
 
PHZ110>124-180-201200-  
BUOY REPORTS  
 
STATION/POSITION TIME TEMP WIND PRES WAVE SWELL
 
AIR SEA DIR/SP/G HT/PER HT/DIR  
(UTC) (F) (DEG/KT/KT) (MB) (FT/S) (FT/D)  
BUOY 51101 1050 72 80/ 17/ 21 1026.8F 11/ 9 8/ 90  
BUOY 51100 NOT AVBL  
BUOY 51002 1050 76 77 70/ 23/ 29 1018.8F 13/ 9 5/ 80  
BUOY 51003 1050 77 1021.5F 11/10 8/100  
BUOY 51004 1050 73 75 60/ 23/ 33 1019.5F 11/ 9 8/ 70  
WAIMEA BAY# 1030 75 N/A 8/ 8 3/360  
MOKAPU POINT# 1030 75 N/A 10/ 8 3/ 50  
LANAI# NOT AVBL  
BARBERS PT# 1030 77 N/A 3/13 2/200  
PAUWELA# 1030 76 N/A 12/ 8 3/ 80  
HILO# 1046 76 N/A 9/ 9 3/ 30  
KANEOHE BAY# 1030 76 N/A 10/ 9 2/ 60  
KANEOHE BAY 2# NOT AVBL  
HANALEI# 1100 74 N/A 11/ 9 3/330  
KAHULUI HARBOR 1024 70 75 80/ 14/ 24 1022.8  
HONOLULU HARBOR 1024 72 76 90/ 4/ 8 1022.0  
PEARL HARBOR# 1030 76 N/A 4/ 6 2/160  
KILO NALU NOT AVBL  
HILO HARBOR 1030 70 77 330/ 6/ 8 1022.0F  
MOKUOLOE 1036 71 74 1023.1R  
NAWILIWILI 1024 73 78 40/ 15/ 20 1023.9  
WHOTS BUOY NOT AVBL  
BUOY 51028 NOT AVBL  

 
   
.....................KEY.....................................
 
 
SKY/WX - SKY CONDITIONS/PRESENT WEATHER  
TMP - TEMPERATURE IN FAHRENHEIT  
DWPT - DEWPOINT IN FAHRENHEIT  
RH - RELATIVE HUMIDITY IN PERCENT  
WIND - DIRECTION AND SPEED /MPH FOR ISLANDS...KTS FOR BUOYS/  
PRES - MEAN SEA LEVEL PRESSURE IN INCHES OF HG  
VSB - VISIBILITY IN MILES  
HX - HEAT INDEX  
WCI - WIND CHILL INDEX  
VRB - VARIABLE WIND DIRECTION  
N/A - NOT AVAILABLE  
 
 
CLICK HERE TO GO TO PREVIOUS BULLETINS.

The Nexlab HI Page Main Text Page